Back to catalog

STARLINK-4633

AliveCommunicationsVLEO
NORAD 53964·PAYLOAD·🇺🇸 United States

Launched Oct 5, 2022 from Vandenberg Space Force Base

Loading…

Next Passes (next 24 hours)

TLE

FreshSource: CelesTrak SupGP

Epoch: Sep 14, 2026, 13:21 UTC

1 53964C 22125A   26257.55673611  .00013529  00000+0  39973-3 0  2575
2 53964  53.1582  89.3215 0001213  93.8287 307.5670 15.34381779    12

Track STARLINK-4633 in real time with AllMySat

Download on the App Store